CST,Max TemperatureF,Mean TemperatureF,Min TemperatureF,Max Dew PointF,MeanDew PointF,Min DewpointF,Max Humidity, Mean Humidity, Min Humidity, Max Sea Level PressureIn, Mean Sea Level PressureIn, Min Sea Level PressureIn, Max VisibilityMiles, Mean VisibilityMiles, Min VisibilityMiles, Max Wind SpeedMPH, Mean Wind SpeedMPH, Max Gust SpeedMPH,PrecipitationIn, CloudCover, Events, WindDirDegrees
2013-11-1,75,58,40,54,45,40,100,66,31,29.99,29.86,29.82,10,4,0,10,3,16,0.00,1,Fog,270
2013-11-2,63,50,36,44,39,32,100,66,32,30.23,30.16,30.01,10,8,1,17,4,29,0.00,0,,321
2013-11-3,64,49,33,44,37,33,100,72,43,30.27,30.20,30.09,10,5,0,14,4,20,0.00,0,Fog,123
2013-11-4,56,53,49,55,50,44,100,89,77,30.17,30.13,30.07,10,7,3,9,5,12,T,6,Rain,80
2013-11-5,67,62,56,66,61,55,100,91,81,30.14,30.05,29.96,10,4,1,13,7,17,0.48,8,Rain,110
2013-11-6,68,52,36,67,56,36,100,86,72,30.33,30.08,29.95,10,5,0,16,7,21,0.68,6,Fog-Rain,274
2013-11-7,63,48,32,46,38,30,100,73,46,30.46,30.39,30.34,10,4,0,8,1,11,0.00,2,Fog,234
2013-11-8,66,52,38,48,40,37,100,70,40,30.37,30.32,30.15,10,5,0,12,3,15,T,1,Fog-Snow,179
2013-11-9,57,54,50,53,51,49,100,93,86,30.26,30.21,30.16,10,8,5,7,2,8,T,7,Rain,84
2013-11-10,69,58,47,54,50,46,100,74,47,30.34,30.29,30.25,10,5,0,9,1,14,0.00,5,Fog,100
2013-11-11,71,56,41,54,47,41,100,75,49,30.29,30.25,30.17,10,3,0,9,1,12,0.00,2,Fog,225
2013-11-12,59,44,29,54,32,21,100,65,30,30.67,30.53,30.26,10,7,1,17,7,24,0.00,3,,17
2013-11-13,53,39,24,29,24,16,100,62,24,30.71,30.55,30.41,10,8,1,12,1,14,0.00,0,,115
2013-11-14,56,40,24,39,28,23,100,66,32,30.40,30.31,30.09,10,5,1,10,2,15,0.00,1,,123
2013-11-15,57,51,44,56,48,38,100,83,66,30.08,30.01,29.91,10,2,0,8,5,11,0.00,8,Fog,79
2013-11-16,73,65,57,69,61,57,100,89,78,29.94,29.84,29.72,10,6,2,13,6,20,0.00,8,,124
2013-11-17,85,71,57,70,60,32,93,64,34,29.99,29.77,29.68,10,10,9,20,7,25,0.00,4,,235
2013-11-18,71,57,42,44,34,24,86,55,23,30.22,30.14,29.99,10,10,2,16,4,23,0.00,0,,69
2013-11-19,62,53,44,43,34,25,92,59,25,30.25,30.17,30.10,10,10,10,20,7,25,0.00,3,,88
2013-11-20,65,53,40,43,35,31,79,54,28,30.12,30.04,29.96,10,10,10,13,6,17,0.00,3,,101
2013-11-21,62,58,53,62,56,42,97,77,57,30.13,30.06,30.01,10,5,0,15,4,20,1.05,8,Fog-Rain-Thunderstorm,70
2013-11-22,63,53,42,62,46,40,96,86,76,30.41,30.27,30.07,10,7,2,16,7,22,0.52,8,Rain-Thunderstorm,13
2013-11-23,49,42,35,41,36,25,96,74,51,30.53,30.45,30.40,10,8,3,16,7,22,T,7,Rain,27
2013-11-24,38,34,29,26,20,14,75,58,40,30.64,30.51,30.38,10,10,8,16,7,23,T,3,Rain,71
2013-11-25,36,34,31,36,32,22,100,81,61,30.36,30.23,30.15,10,4,2,12,4,13,0.02,8,Rain,88
2013-11-26,51,43,34,36,33,23,100,75,50,30.30,30.13,30.06,10,8,4,18,7,31,0.00,6,,344
2013-11-27,48,36,24,25,19,12,92,59,25,30.42,30.35,30.30,10,10,6,12,3,17,0.00,0,,322
2013-11-28,51,37,22,30,25,20,100,70,39,30.48,30.42,30.37,10,6,0,9,1,13,0.00,0,Fog,223
2013-11-29,56,39,22,33,26,20,100,66,32,30.56,30.46,30.39,10,4,0,8,1,12,0.00,0,Fog,170
2013-11-30,64,46,27,47,38,27,100,74,47,30.40,30.29,30.17,10,8,2,14,3,17,0.00,4,,175